JEF22 EVRA-EDDL

Flight info

Callsign JEF22
Flight time 1h 50m
Altitude 40000
Route VALED DCT ADAXA DCT NINTA DCT DIPEB DCT GOSOT DCT BANUB DCT NEBUN DCT ROBEG DCT DENOL T851 HALME HALME1A
Aircraft CL60/M-SBDE1E2E3FGHIJ1J3J4J5J7M3P2RWXYZ/LB1V1D1

Departure

Time 2026-05-07 14:40
Airport Riga International Airport (EVRA)

Arrival

Time 2026-05-07 16:30
Airport Düsseldorf Airport (EDDL)
Time Latitude Longitude Altitude Speed Heading
2026-05-07 13:57 56.91515 23.97557 39 ft 0 kts 276°
2026-05-07 14:38 56.91517 23.97547 39 ft 3 kts 293°
2026-05-07 14:38 56.91527 23.97505 39 ft 5 kts 295°
2026-05-07 14:38 56.91547 23.97420 39 ft 9 kts 306°
2026-05-07 14:38 56.91612 23.97386 38 ft 11 kts
2026-05-07 14:39 56.91702 23.97358 38 ft 15 kts 307°
2026-05-07 14:39 56.91718 23.97195 38 ft 14 kts 275°
2026-05-07 14:39 56.91742 23.97023 37 ft 12 kts 336°
2026-05-07 14:39 56.91756 23.97019 37 ft 4 kts
2026-05-07 14:40 56.92164 23.97086 37 ft 110 kts
2026-05-07 14:40 56.93137 23.97245 375 ft 160 kts
2026-05-07 14:40 56.94347 23.97396 1162 ft 188 kts
2026-05-07 14:40 56.95573 23.97540 2510 ft 178 kts
2026-05-07 14:41 56.96788 23.97521 3443 ft 187 kts 347°
2026-05-07 14:41 56.97857 23.96176 4183 ft 194 kts 311°
2026-05-07 14:41 56.98249 23.93851 4946 ft 203 kts 267°
2026-05-07 14:41 56.97673 23.91368 5753 ft 230 kts 238°
2026-05-07 14:42 56.96700 23.88844 6529 ft 257 kts 237°
2026-05-07 14:42 56.95667 23.86171 7649 ft 264 kts 237°
2026-05-07 14:42 56.94627 23.83500 9107 ft 263 kts 236°
2026-05-07 14:42 56.93556 23.80931 10572 ft 260 kts 234°
2026-05-07 14:43 56.92553 23.78241 11669 ft 268 kts 246°
2026-05-07 14:43 56.92145 23.74855 12448 ft 287 kts 274°
2026-05-07 14:43 56.92520 23.71153 13211 ft 308 kts 282°
2026-05-07 14:43 56.92935 23.67206 13962 ft 325 kts 273°
2026-05-07 14:44 56.92617 23.63064 14733 ft 338 kts 250°
2026-05-07 14:44 56.91591 23.59211 15580 ft 348 kts 243°
2026-05-07 14:44 56.90457 23.55264 16580 ft 353 kts 244°
2026-05-07 14:44 56.89323 23.51297 17564 ft 355 kts 243°
2026-05-07 14:45 56.88162 23.47316 18513 ft 357 kts 240°
2026-05-07 14:45 56.86784 23.43597 19389 ft 361 kts 236°
2026-05-07 14:45 56.85312 23.39855 20228 ft 365 kts 236°
2026-05-07 14:45 56.83834 23.36088 21032 ft 368 kts 236°
2026-05-07 14:46 56.82348 23.32303 21768 ft 371 kts 235°
2026-05-07 14:46 56.80829 23.28438 22420 ft 374 kts 234°
2026-05-07 14:46 56.79322 23.24561 23016 ft 378 kts 238°
2026-05-07 14:46 56.78234 23.20255 23689 ft 381 kts 253°
2026-05-07 14:47 56.77760 23.15486 24363 ft 386 kts 260°
2026-05-07 14:47 56.77377 23.10665 24986 ft 389 kts 259°
2026-05-07 14:47 56.76976 23.05742 25671 ft 390 kts 259°
2026-05-07 14:47 56.76578 23.00872 26331 ft 392 kts 259°
2026-05-07 14:48 56.76175 22.95971 26922 ft 394 kts 259°
2026-05-07 14:48 56.75766 22.91034 27462 ft 396 kts 259°
2026-05-07 14:48 56.75357 22.86120 27942 ft 400 kts 259°
2026-05-07 14:48 56.74937 22.81083 28399 ft 403 kts 259°
2026-05-07 14:49 56.74509 22.75962 28860 ft 406 kts 259°
2026-05-07 14:49 56.74077 22.70819 29311 ft 408 kts 259°
2026-05-07 14:49 56.73642 22.65687 29752 ft 410 kts 259°
2026-05-07 14:49 56.73200 22.60498 30299 ft 408 kts 259°
2026-05-07 14:50 56.72761 22.55361 30900 ft 405 kts 259°
2026-05-07 14:50 56.72328 22.50314 31440 ft 403 kts 258°
2026-05-07 14:50 56.71866 22.45273 31947 ft 400 kts 257°
2026-05-07 14:50 56.71344 22.40192 32418 ft 398 kts 257°
2026-05-07 14:51 56.70828 22.35202 32827 ft 398 kts 257°
2026-05-07 14:51 56.70306 22.30180 33241 ft 397 kts 256°
2026-05-07 14:51 56.69788 22.25217 33635 ft 397 kts 256°
2026-05-07 14:51 56.69270 22.20264 33994 ft 397 kts 256°
2026-05-07 14:52 56.68751 22.15339 34338 ft 397 kts 256°
2026-05-07 14:52 56.68227 22.10381 34695 ft 396 kts 256°
2026-05-07 14:52 56.67703 22.05436 34945 ft 396 kts 256°
2026-05-07 14:52 56.67174 22.00470 35156 ft 397 kts 256°
2026-05-07 14:53 56.66648 21.95559 35343 ft 398 kts 256°
2026-05-07 14:53 56.66119 21.90633 35495 ft 399 kts 256°
2026-05-07 14:53 56.65579 21.85623 35667 ft 400 kts 256°
2026-05-07 14:53 56.65041 21.80654 35816 ft 400 kts 256°
2026-05-07 14:54 56.64500 21.75667 35978 ft 401 kts 256°
2026-05-07 14:54 56.63958 21.70695 36151 ft 402 kts 256°
2026-05-07 14:54 56.63418 21.65771 36366 ft 402 kts 257°
2026-05-07 14:54 56.62868 21.60765 36592 ft 403 kts 257°
2026-05-07 14:55 56.62314 21.55747 36820 ft 403 kts 257°
2026-05-07 14:55 56.61768 21.50822 37020 ft 404 kts 257°
2026-05-07 14:55 56.61212 21.45833 37215 ft 404 kts 257°
2026-05-07 14:55 56.60654 21.40833 37405 ft 405 kts 257°
2026-05-07 14:56 56.60094 21.35832 37566 ft 406 kts 257°
2026-05-07 14:56 56.59528 21.30805 37732 ft 407 kts 256°
2026-05-07 14:56 56.58965 21.25825 37915 ft 408 kts 256°
2026-05-07 14:56 56.58391 21.20769 38090 ft 408 kts 256°
2026-05-07 14:57 56.57816 21.15725 38267 ft 409 kts 256°
2026-05-07 14:57 56.57245 21.10726 38424 ft 409 kts 256°
2026-05-07 14:57 56.56661 21.05644 38560 ft 410 kts 256°
2026-05-07 14:57 56.56084 21.00645 38681 ft 411 kts 256°
2026-05-07 14:58 56.55494 20.95543 38816 ft 412 kts 256°
2026-05-07 14:58 56.54905 20.90469 38944 ft 413 kts 256°
2026-05-07 14:58 56.54317 20.85436 39064 ft 413 kts 256°
2026-05-07 14:58 56.53722 20.80347 39196 ft 414 kts 256°
2026-05-07 14:59 56.53122 20.75241 39325 ft 414 kts 257°
2026-05-07 14:59 56.52522 20.70156 39459 ft 414 kts 257°
2026-05-07 14:59 56.51922 20.65080 39588 ft 414 kts 256°
2026-05-07 14:59 56.51318 20.59998 39718 ft 414 kts 256°
2026-05-07 15:00 56.50713 20.54922 39847 ft 413 kts 257°
2026-05-07 15:00 56.50108 20.49867 39974 ft 413 kts 257°
2026-05-07 15:00 56.48882 20.39683 40045 ft 417 kts 257°
2026-05-07 15:01 56.47637 20.29420 40051 ft 422 kts 256°
2026-05-07 15:01 56.46361 20.18986 40045 ft 425 kts 256°
2026-05-07 15:02 56.45077 20.08554 40040 ft 427 kts 256°
2026-05-07 15:02 56.43787 19.98150 40059 ft 427 kts 256°
2026-05-07 15:03 56.42475 19.87657 40065 ft 426 kts 256°
2026-05-07 15:03 56.41173 19.77313 40062 ft 426 kts 256°
2026-05-07 15:04 56.39852 19.66896 40069 ft 425 kts 256°
2026-05-07 15:04 56.38526 19.56520 40064 ft 426 kts 256°
2026-05-07 15:05 56.37189 19.46126 40069 ft 427 kts 256°
2026-05-07 15:05 56.35841 19.35718 40070 ft 427 kts 256°
2026-05-07 15:06 56.34477 19.25271 40075 ft 427 kts 255°
2026-05-07 15:06 56.33109 19.14861 40076 ft 427 kts 255°
2026-05-07 15:07 56.31731 19.04458 40077 ft 428 kts 255°
2026-05-07 15:07 56.30347 18.94072 40069 ft 428 kts 255°
2026-05-07 15:08 56.29089 18.83651 40057 ft 429 kts 257°
2026-05-07 15:08 56.27926 18.73118 40061 ft 430 kts 257°
2026-05-07 15:09 56.26756 18.62630 40068 ft 430 kts 257°
2026-05-07 15:09 56.25574 18.52120 40067 ft 430 kts 257°
2026-05-07 15:10 56.24382 18.41606 40068 ft 431 kts 257°
2026-05-07 15:10 56.23177 18.31069 40070 ft 431 kts 256°
2026-05-07 15:11 56.21721 18.20617 40072 ft 431 kts 253°
2026-05-07 15:11 56.20169 18.10288 40076 ft 430 kts 253°
2026-05-07 15:12 56.18436 18.00027 40074 ft 429 kts 246°
2026-05-07 15:12 56.15420 17.90780 40073 ft 428 kts 233°
2026-05-07 15:13 56.11859 17.82229 40074 ft 429 kts 233°
2026-05-07 15:13 56.08290 17.73680 40076 ft 430 kts 233°
2026-05-07 15:14 56.04719 17.65152 40076 ft 430 kts 233°
2026-05-07 15:14 56.01130 17.56614 40072 ft 431 kts 233°
2026-05-07 15:15 55.97537 17.48096 40073 ft 431 kts 233°
2026-05-07 15:15 55.93918 17.39544 40071 ft 431 kts 233°
2026-05-07 15:16 55.90311 17.31053 40070 ft 431 kts 232°
2026-05-07 15:16 55.86697 17.22573 40077 ft 431 kts 232°
2026-05-07 15:17 55.83061 17.14071 40084 ft 431 kts 233°
2026-05-07 15:17 55.79422 17.05592 40085 ft 432 kts 233°
2026-05-07 15:18 55.75783 16.97142 40086 ft 433 kts 232°
2026-05-07 15:18 55.72113 16.88649 40084 ft 434 kts 232°
2026-05-07 15:19 55.68456 16.80216 40084 ft 434 kts 232°
2026-05-07 15:19 55.64772 16.71748 40086 ft 434 kts 232°
2026-05-07 15:20 55.61095 16.63329 40084 ft 434 kts 232°
2026-05-07 15:20 55.57401 16.54899 40086 ft 434 kts 232°
2026-05-07 15:21 55.53711 16.46505 40084 ft 435 kts 232°
2026-05-07 15:21 55.49989 16.38070 40082 ft 436 kts 232°
2026-05-07 15:22 55.46236 16.29593 40081 ft 437 kts 232°
2026-05-07 15:22 55.42493 16.21168 40076 ft 437 kts 231°
2026-05-07 15:23 55.38739 16.12746 40078 ft 437 kts 231°
2026-05-07 15:23 55.34994 16.04375 40079 ft 436 kts 231°
2026-05-07 15:24 55.31250 15.96032 40077 ft 437 kts 231°
2026-05-07 15:24 55.27504 15.87715 40079 ft 437 kts 231°
2026-05-07 15:25 55.23732 15.79369 40077 ft 438 kts 231°
2026-05-07 15:25 55.19930 15.70984 40080 ft 439 kts 231°
2026-05-07 15:26 55.16144 15.62664 40079 ft 439 kts 231°
2026-05-07 15:26 55.12324 15.54298 40082 ft 439 kts 232°
2026-05-07 15:27 55.08519 15.45990 40083 ft 439 kts 231°
2026-05-07 15:27 55.04729 15.37745 40086 ft 438 kts 231°
2026-05-07 15:28 55.00918 15.29482 40085 ft 439 kts 231°
2026-05-07 15:28 54.97091 15.21212 40089 ft 439 kts 231°
2026-05-07 15:29 54.93256 15.12952 40086 ft 440 kts 231°
2026-05-07 15:29 54.89439 15.04757 40090 ft 440 kts 231°
2026-05-07 15:30 54.85586 14.96515 40090 ft 440 kts 231°
2026-05-07 15:30 54.81736 14.88306 40089 ft 440 kts 231°
2026-05-07 15:31 54.77511 14.80680 40087 ft 440 kts 224°
2026-05-07 15:31 54.73095 14.73442 40087 ft 440 kts 224°
2026-05-07 15:32 54.68668 14.66196 40085 ft 441 kts 224°
2026-05-07 15:32 54.64207 14.58915 40089 ft 441 kts 224°
2026-05-07 15:33 54.59762 14.51680 40087 ft 442 kts 224°
2026-05-07 15:33 54.55294 14.44429 40090 ft 442 kts 224°
2026-05-07 15:34 54.50827 14.37200 40092 ft 442 kts 224°
2026-05-07 15:34 54.46372 14.29861 40087 ft 441 kts 227°
2026-05-07 15:35 54.42655 14.21473 40089 ft 442 kts 233°
2026-05-07 15:35 54.39047 14.13022 40092 ft 442 kts 233°
2026-05-07 15:36 54.35400 14.04512 40094 ft 443 kts 233°
2026-05-07 15:36 54.31753 13.96032 40093 ft 443 kts 233°
2026-05-07 15:37 54.28086 13.87537 40092 ft 443 kts 233°
2026-05-07 15:37 54.24396 13.79018 40088 ft 443 kts 233°
2026-05-07 15:38 54.20734 13.70593 40093 ft 443 kts 233°
2026-05-07 15:38 54.17067 13.62184 40095 ft 443 kts 233°
2026-05-07 15:39 54.13364 13.53724 40091 ft 444 kts 233°
2026-05-07 15:39 54.09687 13.45351 40088 ft 445 kts 233°
2026-05-07 15:40 54.05985 13.36950 40094 ft 445 kts 233°
2026-05-07 15:40 54.02325 13.28673 40091 ft 445 kts 232°
2026-05-07 15:41 53.98566 13.20200 40092 ft 445 kts 232°
2026-05-07 15:41 53.94830 13.11805 40090 ft 446 kts 232°
2026-05-07 15:42 53.91086 13.03422 40086 ft 446 kts 232°
2026-05-07 15:42 53.87324 12.95027 40081 ft 447 kts 232°
2026-05-07 15:43 53.83570 12.86680 40088 ft 447 kts 232°
2026-05-07 15:43 53.79812 12.78348 40089 ft 446 kts 232°
2026-05-07 15:44 53.76057 12.70053 40081 ft 446 kts 232°
2026-05-07 15:44 53.72264 12.61701 40079 ft 446 kts 232°
2026-05-07 15:45 53.68478 12.53392 40079 ft 446 kts 232°
2026-05-07 15:45 53.64709 12.45147 40080 ft 447 kts 232°
2026-05-07 15:46 53.58984 12.32676 40073 ft 448 kts 232°
2026-05-07 15:47 53.55171 12.24404 40072 ft 448 kts 232°
2026-05-07 15:47 53.51363 12.16171 40072 ft 448 kts 232°
2026-05-07 15:48 53.47533 12.07916 40067 ft 448 kts 232°
2026-05-07 15:48 53.43713 11.99711 40068 ft 447 kts 232°
2026-05-07 15:49 53.39837 11.91413 40066 ft 447 kts 232°
2026-05-07 15:49 53.35985 11.83194 40071 ft 448 kts 232°
2026-05-07 15:50 53.32159 11.75056 40061 ft 448 kts 232°
2026-05-07 15:50 53.28277 11.66826 40067 ft 449 kts 232°
2026-05-07 15:51 53.24416 11.58667 40067 ft 449 kts 232°
2026-05-07 15:51 53.20529 11.50479 40069 ft 449 kts 232°
2026-05-07 15:52 53.16656 11.42347 40068 ft 449 kts 232°
2026-05-07 15:52 53.12761 11.34197 40071 ft 448 kts 231°
2026-05-07 15:53 53.08867 11.26073 40074 ft 448 kts 231°
2026-05-07 15:53 53.05139 11.17868 40072 ft 448 kts 235°
2026-05-07 15:54 53.01618 11.09318 40071 ft 448 kts 235°
2026-05-07 15:54 52.98088 11.00789 40071 ft 448 kts 235°
2026-05-07 15:55 52.94561 10.92303 40066 ft 449 kts 235°
2026-05-07 15:55 52.91022 10.83819 40061 ft 449 kts 235°
2026-05-07 15:56 52.87464 10.75321 40052 ft 449 kts 235°
2026-05-07 15:56 52.83908 10.66858 40049 ft 449 kts 235°
2026-05-07 15:57 52.80339 10.58395 40053 ft 449 kts 235°
2026-05-07 15:57 52.76762 10.49940 40053 ft 449 kts 235°
2026-05-07 15:58 52.73166 10.41471 40057 ft 449 kts 235°
2026-05-07 15:58 52.69595 10.33089 40059 ft 449 kts 234°
2026-05-07 15:59 52.65992 10.24661 40061 ft 449 kts 234°
2026-05-07 15:59 52.62346 10.16158 40062 ft 449 kts 234°
2026-05-07 16:00 52.58772 10.07852 40063 ft 449 kts 234°
2026-05-07 16:00 52.55153 9.99469 40067 ft 449 kts 234°
2026-05-07 16:01 52.51535 9.91116 40068 ft 449 kts 234°
2026-05-07 16:01 52.47901 9.82754 40069 ft 449 kts 234°
2026-05-07 16:02 52.44276 9.74437 40069 ft 449 kts 234°
2026-05-07 16:02 52.40643 9.66133 40069 ft 449 kts 234°
2026-05-07 16:03 52.36998 9.57826 39993 ft 451 kts 234°
2026-05-07 16:03 52.35169 9.53668 39564 ft 459 kts 234°
2026-05-07 16:03 52.33299 9.49423 39085 ft 457 kts 234°
2026-05-07 16:03 52.31459 9.45255 38597 ft 453 kts 234°
2026-05-07 16:04 52.29633 9.41124 38120 ft 453 kts 234°
2026-05-07 16:04 52.27781 9.36941 37594 ft 452 kts 234°
2026-05-07 16:04 52.25935 9.32780 37105 ft 452 kts 234°
2026-05-07 16:04 52.24094 9.28636 36608 ft 453 kts 234°
2026-05-07 16:05 52.22319 9.24494 36111 ft 453 kts 236°
2026-05-07 16:05 52.20548 9.20225 35593 ft 454 kts 236°
2026-05-07 16:05 52.18778 9.15966 35081 ft 455 kts 236°
2026-05-07 16:05 52.17007 9.11715 34591 ft 457 kts 237°
2026-05-07 16:06 52.15226 9.07445 34077 ft 459 kts 236°
2026-05-07 16:06 52.13423 9.03131 33564 ft 460 kts 236°
2026-05-07 16:06 52.11626 8.98839 33040 ft 460 kts 236°
2026-05-07 16:06 52.09841 8.94580 32554 ft 461 kts 236°
2026-05-07 16:07 52.08025 8.90257 32047 ft 461 kts 236°
2026-05-07 16:07 52.06212 8.85948 31537 ft 461 kts 236°
2026-05-07 16:07 52.04419 8.81694 31023 ft 462 kts 236°
2026-05-07 16:07 52.02619 8.77430 30522 ft 461 kts 236°
2026-05-07 16:08 52.00796 8.73121 30004 ft 459 kts 236°
2026-05-07 16:08 51.99073 8.68814 29508 ft 454 kts 242°
2026-05-07 16:08 51.97940 8.64064 28983 ft 449 kts 256°
2026-05-07 16:08 51.97301 8.59204 28462 ft 446 kts 259°
2026-05-07 16:09 51.96674 8.54267 27984 ft 441 kts 259°
2026-05-07 16:09 51.96057 8.49456 27486 ft 438 kts 259°
2026-05-07 16:09 51.95437 8.44635 27022 ft 434 kts 259°
2026-05-07 16:09 51.94820 8.39858 26536 ft 431 kts 258°
2026-05-07 16:10 51.94218 8.35204 26067 ft 428 kts 258°
2026-05-07 16:10 51.93605 8.30489 25598 ft 424 kts 258°
2026-05-07 16:10 51.92995 8.25804 25121 ft 421 kts 258°
2026-05-07 16:10 51.92394 8.21206 24670 ft 418 kts 258°
2026-05-07 16:11 51.91795 8.16647 24195 ft 415 kts 258°
2026-05-07 16:11 51.91196 8.12094 23747 ft 411 kts 258°
2026-05-07 16:11 51.90603 8.07596 23292 ft 409 kts 258°
2026-05-07 16:11 51.90016 8.03163 22846 ft 406 kts 258°
2026-05-07 16:12 51.89426 7.98716 22397 ft 403 kts 258°
2026-05-07 16:12 51.88868 7.94529 21985 ft 401 kts 258°
2026-05-07 16:12 51.88246 7.89871 21509 ft 399 kts 258°
2026-05-07 16:12 51.87670 7.85574 21082 ft 396 kts 258°
2026-05-07 16:13 51.87097 7.81313 20658 ft 393 kts 258°
2026-05-07 16:13 51.86517 7.77009 20223 ft 391 kts 258°
2026-05-07 16:13 51.85939 7.72744 19790 ft 388 kts 257°
2026-05-07 16:13 51.85064 7.68600 19354 ft 386 kts 246°
2026-05-07 16:14 51.83917 7.64744 18916 ft 384 kts 245°
2026-05-07 16:14 51.82754 7.60840 18492 ft 382 kts 245°
2026-05-07 16:14 51.81611 7.56999 18089 ft 380 kts 245°
2026-05-07 16:14 51.80465 7.53152 17662 ft 378 kts 245°
2026-05-07 16:15 51.79333 7.49356 17243 ft 376 kts 245°
2026-05-07 16:15 51.78205 7.45581 16822 ft 374 kts 245°
2026-05-07 16:15 51.77079 7.41814 16437 ft 372 kts 245°
2026-05-07 16:15 51.75953 7.38054 16004 ft 370 kts 245°
2026-05-07 16:16 51.74833 7.34316 15598 ft 368 kts 244°
2026-05-07 16:16 51.73778 7.30802 15213 ft 365 kts 244°
2026-05-07 16:16 51.72664 7.27098 14820 ft 364 kts 244°
2026-05-07 16:16 51.71495 7.23458 14396 ft 362 kts 238°
2026-05-07 16:17 51.69855 7.20425 13968 ft 360 kts 220°
2026-05-07 16:17 51.67750 7.18342 13695 ft 359 kts 204°
2026-05-07 16:17 51.65768 7.17097 13493 ft 360 kts 201°
2026-05-07 16:17 51.63277 7.15600 13240 ft 360 kts 201°
2026-05-07 16:18 51.60925 7.14179 12983 ft 359 kts 201°
2026-05-07 16:18 51.58599 7.12775 12726 ft 358 kts 201°
2026-05-07 16:18 51.56315 7.11255 12477 ft 355 kts 209°
2026-05-07 16:18 51.54356 7.08845 12209 ft 353 kts 227°
2026-05-07 16:19 51.52869 7.05831 11940 ft 348 kts 234°
2026-05-07 16:19 51.51425 7.02745 11634 ft 341 kts 233°
2026-05-07 16:19 51.50002 6.99721 11421 ft 333 kts 233°
2026-05-07 16:19 51.48636 6.96823 11181 ft 318 kts 233°
2026-05-07 16:20 51.47337 6.94068 10973 ft 304 kts 233°
2026-05-07 16:20 51.46091 6.91429 10756 ft 293 kts 233°
2026-05-07 16:20 51.44884 6.88876 10562 ft 287 kts 233°
2026-05-07 16:20 51.43670 6.86308 10352 ft 287 kts 233°
2026-05-07 16:21 51.42470 6.83771 10130 ft 287 kts 233°
2026-05-07 16:21 51.41249 6.81195 9934 ft 289 kts 233°
2026-05-07 16:21 51.40037 6.78640 9483 ft 289 kts 233°
2026-05-07 16:21 51.38839 6.76117 9017 ft 288 kts 233°
2026-05-07 16:22 51.37616 6.73543 8537 ft 287 kts 233°
2026-05-07 16:22 51.36413 6.71014 8062 ft 287 kts 233°
2026-05-07 16:22 51.35206 6.68480 7583 ft 286 kts 234°
2026-05-07 16:22 51.34010 6.65973 7095 ft 284 kts 234°
2026-05-07 16:23 51.32832 6.63504 6606 ft 279 kts 234°
2026-05-07 16:23 51.31666 6.61066 6165 ft 272 kts 234°
2026-05-07 16:23 51.30548 6.58726 5835 ft 263 kts 234°
2026-05-07 16:23 51.29433 6.56396 5340 ft 261 kts 234°
2026-05-07 16:24 51.28345 6.54124 4845 ft 259 kts 234°
2026-05-07 16:24 51.27238 6.51813 4332 ft 258 kts 234°
2026-05-07 16:24 51.26166 6.49594 3851 ft 253 kts 232°
2026-05-07 16:24 51.24825 6.47926 3583 ft 240 kts 199°
2026-05-07 16:25 51.23219 6.47792 3398 ft 228 kts 160°
2026-05-07 16:25 51.21920 6.49098 3168 ft 218 kts 135°
2026-05-07 16:25 51.20867 6.50783 2998 ft 208 kts 127°
2026-05-07 16:25 51.20258 6.52797 2991 ft 203 kts 105°
2026-05-07 16:26 51.19878 6.55006 2983 ft 205 kts 97°
2026-05-07 16:26 51.20045 6.57201 2876 ft 203 kts 65°
2026-05-07 16:26 51.20787 6.59037 2595 ft 187 kts 51°
2026-05-07 16:26 51.21292 6.60075 2426 ft 171 kts 51°
2026-05-07 16:27 51.22206 6.61984 2176 ft 157 kts 52°
2026-05-07 16:27 51.22860 6.63358 1964 ft 154 kts 52°
2026-05-07 16:27 51.23495 6.64687 1764 ft 148 kts 52°
2026-05-07 16:27 51.24104 6.65972 1549 ft 138 kts 52°
2026-05-07 16:28 51.24686 6.67171 1333 ft 135 kts 51°
2026-05-07 16:28 51.25248 6.68327 1154 ft 130 kts 50°
2026-05-07 16:28 51.25793 6.69446 972 ft 126 kts 52°
2026-05-07 16:28 51.26330 6.70565 834 ft 129 kts 51°
2026-05-07 16:29 51.26890 6.71712 680 ft 129 kts 52°
2026-05-07 16:29 51.27424 6.72845 513 ft 127 kts 52°
2026-05-07 16:29 51.27953 6.73987 336 ft 127 kts 52°
2026-05-07 16:29 51.28487 6.75118 170 ft 127 kts 52°
2026-05-07 16:30 51.28979 6.76149 127 ft 97 kts 53°
2026-05-07 16:30 51.29315 6.76855 128 ft 64 kts 52°
2026-05-07 16:30 51.29546 6.77351 128 ft 42 kts 55°
2026-05-07 16:30 51.29592 6.77651 130 ft 15 kts 102°
2026-05-07 16:31 51.29559 6.77794 131 ft 13 kts 121°
2026-05-07 16:31 51.29489 6.77911 132 ft 14 kts 142°
2026-05-07 16:31 51.29431 6.77981 133 ft 5 kts 143°
2026-05-07 16:31 51.29428 6.77984 133 ft 0 kts 143°
2026-05-07 16:32 51.29365 6.78062 134 ft 26 kts 142°
2026-05-07 16:33 51.29217 6.78219 135 ft 14 kts 170°
2026-05-07 16:33 51.29161 6.78186 135 ft 8 kts 229°
2026-05-07 16:33 51.29145 6.78153 134 ft 0 kts 233°
2026-05-07 16:33 51.29134 6.78130 134 ft 9 kts 232°
2026-05-07 16:34 51.29069 6.77993 132 ft 18 kts 232°
2026-05-07 16:34 51.28981 6.77808 130 ft 22 kts 233°
2026-05-07 16:34 51.28878 6.77592 129 ft 26 kts 233°
2026-05-07 16:34 51.28760 6.77346 128 ft 29 kts 233°
2026-05-07 16:35 51.28634 6.77081 128 ft 31 kts 233°
2026-05-07 16:35 51.28497 6.76793 127 ft 33 kts 232°
2026-05-07 16:35 51.28363 6.76513 127 ft 30 kts 233°
2026-05-07 16:35 51.28231 6.76237 127 ft 31 kts 233°
2026-05-07 16:36 51.28107 6.75974 127 ft 28 kts 233°
2026-05-07 16:36 51.27993 6.75735 127 ft 25 kts 232°
2026-05-07 16:36 51.27890 6.75520 125 ft 23 kts 233°
2026-05-07 16:36 51.27800 6.75389 124 ft 14 kts 169°
2026-05-07 16:37 51.27692 6.75469 125 ft 19 kts 154°
2026-05-07 16:37 51.27580 6.75547 126 ft 16 kts 156°
2026-05-07 16:37 51.27508 6.75566 126 ft 10 kts 237°
2026-05-07 16:37 51.27467 6.75430 125 ft 11 kts 249°
2026-05-07 16:38 51.27423 6.75401 125 ft 10 kts 162°
2026-05-07 16:38 51.27402 6.75388 125 ft 0 kts 255°
2026-05-07 16:38 51.27404 6.75399 125 ft 0 kts 256°
2026-05-07 16:38 51.27405 6.75409 125 ft 0 kts 257°